Time,TemperatureF,DewpointF,PressureIn,WindDirection,WindDirectionDegrees,WindSpeedMPH,WindSpeedGustMPH,Humidity,HourlyPrecipIn,Conditions,Clouds,dailyrainin,SoftwareType,DateUTC
2013-03-15 00:03:00,26.0,16.0,30.12,NNW,347,2.0,7.0,64,0.00,,,0.01,,2013-03-15 04:03:00,
2013-03-15 00:12:00,26.0,16.0,30.12,NNW,347,2.0,7.0,64,0.00,,,0.01,,2013-03-15 04:12:00,
2013-03-15 00:23:00,26.0,16.0,30.13,NW,326,3.0,6.0,64,0.00,,,0.01,,2013-03-15 04:23:00,
2013-03-15 00:33:00,25.0,15.0,30.12,NNW,330,3.0,7.0,64,0.00,,,0.01,,2013-03-15 04:33:00,
2013-03-15 00:43:00,25.0,15.0,30.12,NNW,330,3.0,7.0,64,0.00,,,0.01,,2013-03-15 04:43:00,
2013-03-15 00:52:00,25.0,15.0,30.12,NNW,334,2.0,6.0,65,0.00,,,0.01,,2013-03-15 04:52:00,
2013-03-15 01:02:00,25.0,15.0,30.12,NW,319,2.0,6.0,65,0.00,,,0.01,,2013-03-15 05:02:00,
2013-03-15 01:12:00,25.0,15.0,30.12,NW,319,2.0,6.0,65,0.00,,,0.01,,2013-03-15 05:12:00,
2013-03-15 01:22:00,25.0,15.0,30.12,NNW,329,1.0,7.0,66,0.00,,,0.01,,2013-03-15 05:22:00,
2013-03-15 01:32:00,25.0,15.0,30.12,NNW,339,2.0,5.0,66,0.00,,,0.01,,2013-03-15 05:32:00,
2013-03-15 01:42:00,25.0,15.0,30.12,NNW,339,2.0,5.0,66,0.00,,,0.01,,2013-03-15 05:42:00,
2013-03-15 01:52:00,24.0,15.0,30.11,NNW,329,2.0,7.0,67,0.00,,,0.01,,2013-03-15 05:52:00,
2013-03-15 02:02:00,24.0,15.0,30.11,NNW,334,1.0,6.0,68,0.00,,,0.01,,2013-03-15 06:02:00,
2013-03-15 02:12:00,24.0,15.0,30.11,NNW,334,1.0,6.0,68,0.00,,,0.01,,2013-03-15 06:12:00,
2013-03-15 02:22:00,25.0,17.0,30.11,NW,306,1.0,5.0,70,0.00,,,0.01,,2013-03-15 06:22:00,
2013-03-15 02:32:00,25.0,17.0,30.10,NNW,329,0.0,4.0,70,0.00,,,0.01,,2013-03-15 06:32:00,
2013-03-15 02:42:00,25.0,17.0,30.10,NNW,329,0.0,4.0,70,0.00,,,0.01,,2013-03-15 06:42:00,
2013-03-15 02:52:00,25.0,17.0,30.09,NE,34,1.0,3.0,71,0.00,,,0.01,,2013-03-15 06:52:00,
2013-03-15 03:02:00,24.0,17.0,30.08,NW,309,0.0,2.0,73,0.00,,,0.01,,2013-03-15 07:02:00,
2013-03-15 03:12:00,24.0,17.0,30.08,NW,309,0.0,2.0,73,0.00,,,0.01,,2013-03-15 07:12:00,
2013-03-15 03:22:00,24.0,17.0,30.07,WNW,297,0.0,3.0,73,0.00,,,0.01,,2013-03-15 07:22:00,
2013-03-15 03:32:00,24.0,17.0,30.06,WNW,297,0.0,1.0,74,0.00,,,0.00,,2013-03-15 07:32:00,
2013-03-15 03:42:00,24.0,17.0,30.06,WNW,297,0.0,1.0,74,0.00,,,0.00,,2013-03-15 07:42:00,
2013-03-15 03:52:00,24.0,18.0,30.05,WNW,296,0.0,2.0,76,0.00,,,0.00,,2013-03-15 07:52:00,
2013-03-15 04:02:00,23.0,17.0,30.04,WNW,296,0.0,1.0,77,0.00,,,0.00,,2013-03-15 08:02:00,
2013-03-15 04:12:00,23.0,17.0,30.04,WNW,296,0.0,1.0,77,0.00,,,0.00,,2013-03-15 08:12:00,
2013-03-15 04:23:00,23.0,17.0,30.04,WNW,283,0.0,2.0,77,0.00,,,0.00,,2013-03-15 08:23:00,
2013-03-15 04:33:00,23.0,17.0,30.03,WSW,250,0.0,2.0,79,0.00,,,0.00,,2013-03-15 08:33:00,
2013-03-15 04:42:00,23.0,17.0,30.03,WSW,250,0.0,2.0,79,0.00,,,0.00,,2013-03-15 08:42:00,
2013-03-15 04:52:00,24.0,19.0,30.01,South,190,1.0,2.0,80,0.00,,,0.00,,2013-03-15 08:52:00,
2013-03-15 05:02:00,24.0,19.0,30.01,South,190,2.0,3.0,80,0.00,,,0.00,,2013-03-15 09:02:00,
2013-03-15 05:12:00,24.0,19.0,30.01,South,190,2.0,3.0,80,0.00,,,0.00,,2013-03-15 09:12:00,
2013-03-15 05:22:00,24.0,18.0,30.00,South,190,2.0,4.0,78,0.00,,,0.00,,2013-03-15 09:22:00,
2013-03-15 05:33:00,24.0,19.0,29.99,South,188,1.0,4.0,80,0.00,,,0.00,,2013-03-15 09:33:00,
2013-03-15 05:43:00,24.0,19.0,29.99,South,188,1.0,4.0,80,0.00,,,0.00,,2013-03-15 09:43:00,
2013-03-15 05:52:00,24.0,19.0,29.98,South,178,1.0,4.0,81,0.00,,,0.00,,2013-03-15 09:52:00,
2013-03-15 06:03:00,24.0,19.0,29.97,SSE,167,2.0,4.0,82,0.00,,,0.00,,2013-03-15 10:03:00,
2013-03-15 06:13:00,24.0,19.0,29.97,SSE,167,2.0,4.0,82,0.00,,,0.00,,2013-03-15 10:13:00,
2013-03-15 06:23:00,24.0,20.0,29.96,SSE,162,2.0,4.0,83,0.00,,,0.00,,2013-03-15 10:23:00,
2013-03-15 06:33:00,24.0,20.0,29.96,SSE,153,2.0,3.0,83,0.00,,,0.00,,2013-03-15 10:33:00,
2013-03-15 06:42:00,24.0,20.0,29.96,SSE,153,2.0,3.0,83,0.00,,,0.00,,2013-03-15 10:42:00,
2013-03-15 06:52:00,25.0,21.0,29.94,SSE,166,2.0,4.0,83,0.00,,,0.00,,2013-03-15 10:52:00,
2013-03-15 07:03:00,24.0,20.0,29.93,SSE,161,2.0,4.0,84,0.00,,,0.00,,2013-03-15 11:03:00,
2013-03-15 07:12:00,24.0,20.0,29.93,SSE,161,2.0,4.0,84,0.00,,,0.00,,2013-03-15 11:12:00,
2013-03-15 07:23:00,24.0,20.0,29.91,SE,146,2.0,4.0,83,0.00,,,0.00,,2013-03-15 11:23:00,
2013-03-15 07:32:00,25.0,21.0,29.91,SE,143,1.0,3.0,83,0.00,,,0.00,,2013-03-15 11:32:00,
2013-03-15 07:42:00,25.0,21.0,29.91,SE,143,1.0,3.0,83,0.00,,,0.00,,2013-03-15 11:42:00,
2013-03-15 07:52:00,25.0,20.0,29.90,SSE,150,1.0,3.0,82,0.00,,,0.00,,2013-03-15 11:52:00,
2013-03-15 08:02:00,26.0,22.0,29.89,SSE,159,0.0,2.0,83,0.00,,,0.00,,2013-03-15 12:02:00,
2013-03-15 08:12:00,28.0,23.0,29.89,South,172,1.0,6.0,82,0.00,,,0.00,,2013-03-15 12:12:00,
2013-03-15 08:23:00,28.0,23.0,29.89,South,172,1.0,6.0,82,0.00,,,0.00,,2013-03-15 12:23:00,
2013-03-15 08:32:00,30.0,24.0,29.88,SW,222,3.0,9.0,79,0.00,,,0.00,,2013-03-15 12:32:00,
2013-03-15 08:42:00,30.0,24.0,29.88,SW,222,3.0,9.0,79,0.00,,,0.00,,2013-03-15 12:42:00,
2013-03-15 08:52:00,30.0,25.0,29.88,WNW,284,4.0,12.0,82,0.00,,,0.00,,2013-03-15 12:52:00,
2013-03-15 09:02:00,30.0,27.0,29.87,WNW,296,3.0,10.0,87,0.00,,,0.00,,2013-03-15 13:02:00,
2013-03-15 09:12:00,30.0,27.0,29.87,WNW,296,3.0,10.0,87,0.00,,,0.00,,2013-03-15 13:12:00,
2013-03-15 09:22:00,30.0,27.0,29.87,WNW,286,3.0,-999.0,90,-99.99,,,-99.99,,2013-03-15 13:22:00,
2013-03-15 09:32:00,30.0,28.0,29.87,West,268,2.0,8.0,91,0.00,,,0.00,,2013-03-15 13:32:00,
2013-03-15 09:42:00,30.0,28.0,29.87,West,268,2.0,8.0,91,0.00,,,0.00,,2013-03-15 13:42:00,
2013-03-15 09:53:00,31.0,29.0,29.86,West,276,5.0,12.0,91,0.00,,,0.00,,2013-03-15 13:53:00,
2013-03-15 10:02:00,31.0,29.0,29.86,NW,307,5.0,17.0,91,0.00,,,0.00,,2013-03-15 14:02:00,
2013-03-15 10:12:00,31.0,29.0,29.86,NW,307,5.0,17.0,91,0.00,,,0.00,,2013-03-15 14:12:00,
2013-03-15 10:22:00,31.0,29.0,29.85,WNW,286,3.0,12.0,91,0.00,,,0.00,,2013-03-15 14:22:00,
2013-03-15 10:32:00,31.0,29.0,29.85,West,275,4.0,15.0,91,0.00,,,0.00,,2013-03-15 14:32:00,
2013-03-15 10:42:00,31.0,29.0,29.85,West,275,4.0,15.0,91,0.00,,,0.00,,2013-03-15 14:42:00,
2013-03-15 10:53:00,32.0,30.0,29.85,North,355,5.0,11.0,92,0.00,,,0.00,,2013-03-15 14:53:00,
2013-03-15 11:02:00,32.0,30.0,29.85,WNW,294,3.0,9.0,92,0.01,,,0.01,,2013-03-15 15:02:00,
2013-03-15 11:13:00,32.0,30.0,29.85,WNW,294,3.0,9.0,92,0.01,,,0.01,,2013-03-15 15:13:00,
2013-03-15 11:23:00,32.0,30.0,29.85,NNW,333,5.0,15.0,91,0.02,,,0.02,,2013-03-15 15:23:00,
2013-03-15 11:33:00,32.0,30.0,29.85,NNW,333,5.0,15.0,91,0.02,,,0.02,,2013-03-15 15:33:00,
2013-03-15 11:42:00,32.0,30.0,29.84,West,263,6.0,13.0,91,0.04,,,0.04,,2013-03-15 15:42:00,
2013-03-15 11:53:00,32.0,30.0,29.84,West,263,6.0,13.0,91,0.04,,,0.04,,2013-03-15 15:53:00,
2013-03-15 12:03:00,32.0,30.0,29.84,NW,307,5.0,13.0,91,0.04,,,0.05,,2013-03-15 16:03:00,
2013-03-15 12:13:00,32.0,29.0,29.83,WNW,287,5.0,12.0,90,0.04,,,0.06,,2013-03-15 16:13:00,
2013-03-15 12:23:00,32.0,29.0,29.83,WNW,287,5.0,12.0,90,0.04,,,0.06,,2013-03-15 16:23:00,
2013-03-15 12:32:00,33.0,30.0,29.83,WNW,284,5.0,13.0,89,0.03,,,0.06,,2013-03-15 16:32:00,
2013-03-15 12:42:00,33.0,30.0,29.83,WNW,284,5.0,13.0,89,0.03,,,0.06,,2013-03-15 16:42:00,
2013-03-15 12:52:00,33.0,30.0,29.83,NW,313,6.0,15.0,88,0.03,,,0.07,,2013-03-15 16:52:00,
2013-03-15 13:02:00,33.0,30.0,29.82,NW,318,4.0,13.0,87,0.02,,,0.07,,2013-03-15 17:02:00,
2013-03-15 13:12:00,33.0,30.0,29.82,NW,318,4.0,13.0,87,0.02,,,0.07,,2013-03-15 17:12:00,
2013-03-15 13:22:00,33.0,29.0,29.82,NW,323,4.0,12.0,86,0.01,,,0.07,,2013-03-15 17:22:00,
2013-03-15 13:32:00,34.0,30.0,29.82,NW,319,5.0,14.0,85,0.01,,,0.07,,2013-03-15 17:32:00,
2013-03-15 13:42:00,34.0,30.0,29.82,NW,319,5.0,14.0,85,0.01,,,0.07,,2013-03-15 17:42:00,
2013-03-15 13:53:00,34.0,30.0,29.81,West,275,5.0,14.0,85,0.00,,,0.07,,2013-03-15 17:53:00,
2013-03-15 14:02:00,34.0,30.0,29.80,NW,304,4.0,13.0,85,0.00,,,0.07,,2013-03-15 18:02:00,
2013-03-15 14:12:00,34.0,30.0,29.80,NW,304,4.0,13.0,85,0.00,,,0.07,,2013-03-15 18:12:00,
2013-03-15 14:22:00,34.0,30.0,29.80,WSW,242,4.0,12.0,85,0.00,,,0.07,,2013-03-15 18:22:00,
2013-03-15 14:32:00,34.0,30.0,29.80,NNW,327,5.0,17.0,84,0.00,,,0.07,,2013-03-15 18:32:00,
2013-03-15 14:42:00,34.0,30.0,29.80,NNW,327,5.0,17.0,84,0.00,,,0.07,,2013-03-15 18:42:00,
2013-03-15 14:52:00,36.0,31.0,29.80,West,281,7.0,20.0,82,0.00,,,0.07,,2013-03-15 18:52:00,
2013-03-15 15:02:00,35.0,30.0,29.79,NW,319,9.0,21.0,82,0.00,,,0.07,,2013-03-15 19:02:00,
2013-03-15 15:12:00,35.0,30.0,29.79,NW,319,9.0,21.0,82,0.00,,,0.07,,2013-03-15 19:12:00,
2013-03-15 15:22:00,35.0,30.0,29.79,NNW,346,8.0,20.0,82,0.00,,,0.07,,2013-03-15 19:22:00,
2013-03-15 15:32:00,35.0,31.0,29.79,WSW,258,5.0,15.0,84,0.00,,,0.07,,2013-03-15 19:32:00,
2013-03-15 15:42:00,35.0,31.0,29.79,WSW,258,5.0,15.0,84,0.00,,,0.07,,2013-03-15 19:42:00,
2013-03-15 15:52:00,36.0,31.0,29.79,NNW,346,7.0,17.0,81,0.00,,,0.07,,2013-03-15 19:52:00,
2013-03-15 16:02:00,35.0,30.0,29.79,West,260,5.0,20.0,83,0.00,,,0.07,,2013-03-15 20:02:00,
2013-03-15 16:12:00,35.0,30.0,29.79,West,260,5.0,20.0,83,0.00,,,0.07,,2013-03-15 20:12:00,
2013-03-15 16:22:00,36.0,30.0,29.80,NNE,12,4.0,11.0,80,0.00,,,0.07,,2013-03-15 20:22:00,
2013-03-15 16:32:00,36.0,30.0,29.80,WNW,286,3.0,13.0,80,0.00,,,0.07,,2013-03-15 20:32:00,
2013-03-15 16:42:00,36.0,30.0,29.80,WNW,286,3.0,13.0,80,0.00,,,0.07,,2013-03-15 20:42:00,
2013-03-15 16:52:00,36.0,30.0,29.80,NE,42,4.0,12.0,79,0.00,,,0.07,,2013-03-15 20:52:00,
2013-03-15 17:02:00,36.0,30.0,29.80,SE,126,4.0,9.0,79,0.00,,,0.07,,2013-03-15 21:02:00,
2013-03-15 17:12:00,36.0,30.0,29.80,SE,126,4.0,9.0,79,0.00,,,0.07,,2013-03-15 21:12:00,
2013-03-15 17:22:00,36.0,30.0,29.81,North,355,4.0,10.0,79,0.00,,,0.07,,2013-03-15 21:22:00,
2013-03-15 17:33:00,36.0,30.0,29.81,West,261,5.0,11.0,80,0.00,,,0.07,,2013-03-15 21:33:00,
2013-03-15 17:43:00,36.0,30.0,29.81,West,261,5.0,11.0,80,0.00,,,0.07,,2013-03-15 21:43:00,
2013-03-15 17:53:00,36.0,31.0,29.81,NNW,338,3.0,11.0,81,0.00,,,0.07,,2013-03-15 21:53:00,
2013-03-15 18:03:00,35.0,30.0,29.82,West,279,2.0,10.0,81,0.00,,,0.07,,2013-03-15 22:03:00,
2013-03-15 18:14:00,35.0,30.0,29.82,West,279,2.0,10.0,81,0.00,,,0.07,,2013-03-15 22:14:00,
2013-03-15 18:22:00,35.0,30.0,29.82,West,263,3.0,9.0,81,0.00,,,0.07,,2013-03-15 22:22:00,
2013-03-15 18:32:00,35.0,30.0,29.83,NNW,329,3.0,9.0,81,0.00,,,0.07,,2013-03-15 22:32:00,
2013-03-15 18:42:00,35.0,30.0,29.83,NNW,329,3.0,9.0,81,0.00,,,0.07,,2013-03-15 22:42:00,
2013-03-15 18:53:00,35.0,29.0,29.83,WNW,295,2.0,8.0,80,0.00,,,0.07,,2013-03-15 22:53:00,
2013-03-15 19:02:00,35.0,28.0,29.83,WNW,288,4.0,9.0,74,0.00,,,0.07,,2013-03-15 23:02:00,
2013-03-15 19:12:00,35.0,28.0,29.83,WNW,288,4.0,9.0,74,0.00,,,0.07,,2013-03-15 23:12:00,
2013-03-15 19:22:00,35.0,25.0,29.84,WNW,301,5.0,11.0,67,0.00,,,0.07,,2013-03-15 23:22:00,
2013-03-15 19:32:00,34.0,24.0,29.85,NNW,344,5.0,10.0,66,0.00,,,0.07,,2013-03-15 23:32:00,
2013-03-15 19:42:00,34.0,24.0,29.85,NNW,344,5.0,10.0,66,0.00,,,0.07,,2013-03-15 23:42:00,
2013-03-15 19:53:00,34.0,24.0,29.85,NNW,344,5.0,10.0,66,0.00,,,0.07,,2013-03-15 23:53:00,
2013-03-15 20:03:00,33.0,23.0,29.86,North,355,4.0,15.0,66,0.00,,,0.07,,2013-03-16 00:03:00,
2013-03-15 20:12:00,33.0,23.0,29.86,North,355,4.0,15.0,66,0.00,,,0.07,,2013-03-16 00:12:00,
2013-03-15 20:22:00,33.0,23.0,29.87,NNW,348,5.0,11.0,66,0.00,,,0.07,,2013-03-16 00:22:00,
2013-03-15 20:32:00,33.0,23.0,29.87,North,10,6.0,15.0,65,0.00,,,0.07,,2013-03-16 00:32:00,
2013-03-15 20:42:00,33.0,23.0,29.87,North,10,6.0,15.0,65,0.00,,,0.07,,2013-03-16 00:42:00,
2013-03-15 20:52:00,33.0,23.0,29.88,NW,324,4.0,13.0,67,0.00,,,0.07,,2013-03-16 00:52:00,
2013-03-15 21:03:00,32.0,22.0,29.89,NNW,334,5.0,12.0,67,0.00,,,0.07,,2013-03-16 01:03:00,
2013-03-15 21:12:00,32.0,22.0,29.89,NNW,334,5.0,12.0,67,0.00,,,0.07,,2013-03-16 01:12:00,
2013-03-15 21:22:00,32.0,22.0,29.89,NNW,327,4.0,10.0,66,0.00,,,0.07,,2013-03-16 01:22:00,
2013-03-15 21:32:00,32.0,22.0,29.90,North,351,3.0,8.0,67,0.00,,,0.07,,2013-03-16 01:32:00,
2013-03-15 21:42:00,32.0,22.0,29.90,North,351,3.0,8.0,67,0.00,,,0.07,,2013-03-16 01:42:00,
2013-03-15 21:53:00,32.0,24.0,29.91,NNW,337,5.0,11.0,71,0.00,,,0.07,,2013-03-16 01:53:00,
2013-03-15 22:02:00,31.0,23.0,29.92,NNW,330,6.0,13.0,72,0.00,,,0.07,,2013-03-16 02:02:00,
2013-03-15 22:12:00,31.0,23.0,29.92,NNW,330,6.0,13.0,72,0.00,,,0.07,,2013-03-16 02:12:00,
2013-03-15 22:23:00,31.0,23.0,29.93,NNW,329,4.0,10.0,71,0.00,,,0.07,,2013-03-16 02:23:00,
2013-03-15 22:32:00,30.0,21.0,29.93,North,360,4.0,10.0,70,0.00,,,0.07,,2013-03-16 02:32:00,
2013-03-15 22:42:00,30.0,21.0,29.93,North,360,4.0,10.0,70,0.00,,,0.07,,2013-03-16 02:42:00,
2013-03-15 22:52:00,30.0,21.0,29.94,NNW,329,5.0,12.0,70,0.00,,,0.07,,2013-03-16 02:52:00,
2013-03-15 23:02:00,30.0,21.0,29.94,NNW,327,4.0,9.0,70,0.00,,,0.07,,2013-03-16 03:02:00,
2013-03-15 23:12:00,30.0,21.0,29.94,NNW,327,4.0,9.0,70,0.00,,,0.07,,2013-03-16 03:12:00,
2013-03-15 23:22:00,30.0,21.0,29.95,NNW,336,5.0,13.0,69,0.00,,,0.07,,2013-03-16 03:22:00,
2013-03-15 23:32:00,29.0,19.0,29.95,NW,322,7.0,14.0,67,0.00,,,0.07,,2013-03-16 03:32:00,
2013-03-15 23:43:00,29.0,19.0,29.95,NW,322,7.0,14.0,67,0.00,,,0.07,,2013-03-16 03:43:00,
2013-03-15 23:53:00,29.0,20.0,29.95,NW,308,3.0,10.0,68,0.00,,,0.07,,2013-03-16 03:53:00,